This is the latest recevied weather packets stored in our database for station/object KF8LO-1. If no packets are shown the sender has not sent any weather packets the latest 1 day(s).
| Time | Temp. | Humidity | Pressure | Rain* | Wind** | Luminosity | Snow |
|---|---|---|---|---|---|---|---|
| 1778049603 | 16.67° C | 45% | 0 hPa | 0 mm | 2.68 m/s, 240° | - | - |
| 1778049303 | 16.67° C | 45% | 0 hPa | 0 mm | 3.58 m/s, 250° | - | - |
| 1778049003 | 16.67° C | 45% | 0 hPa | 0 mm | 2.24 m/s, 277° | - | - |
| 1778048703 | 16.67° C | 45% | 0 hPa | 0 mm | 4.02 m/s, 233° | - | - |
| 1778048403 | 16.67° C | 45% | 0 hPa | 0 mm | 4.47 m/s, 215° | - | - |
| 1778048103 | 16.67° C | 45% | 0 hPa | 0 mm | 4.02 m/s, 222° | - | - |
| 1778047803 | 16.67° C | 45% | 0 hPa | 0 mm | 3.13 m/s, 255° | - | - |
| 1778047503 | 16.67° C | 45% | 0 hPa | 0 mm | 3.13 m/s, 264° | - | - |
| 1778047203 | 16.67° C | 45% | 0 hPa | 0 mm | 3.13 m/s, 209° | - | - |
| 1778046903 | 16.67° C | 45% | 0 hPa | 0 mm | 3.13 m/s, 268° | - | - |
| 1778046603 | 16.67° C | 45% | 0 hPa | 0 mm | 3.13 m/s, 307° | - | - |
| 1778046303 | 16.67° C | 45% | 0 hPa | 0 mm | 2.68 m/s, 233° | - | - |
| 1778046003 | 16.67° C | 45% | 0 hPa | 0 mm | 3.13 m/s, 236° | - | - |
| 1778045703 | 16.67° C | 45% | 0 hPa | 0 mm | 2.68 m/s, 241° | - | - |
| 1778045403 | 16.67° C | 45% | 0 hPa | 0 mm | 3.13 m/s, 253° | - | - |
| 1778045103 | 16.67° C | 45% | 0 hPa | 0 mm | 2.68 m/s, 240° | - | - |
| 1778044803 | 16.67° C | 45% | 0 hPa | 0 mm | 3.13 m/s, 250° | - | - |
| 1778044503 | 16.67° C | 45% | 0 hPa | 0 mm | 4.02 m/s, 260° | - | - |
| 1778044203 | 16.67° C | 45% | 0 hPa | 0 mm | 2.68 m/s, 246° | - | - |
| 1778043903 | 16.67° C | 45% | 0 hPa | 0 mm | 1.34 m/s, 182° | - | - |
| 1778043603 | 16.67° C | 45% | 0 hPa | 0 mm | 8.49 m/s, 239° | - | - |
| 1778043303 | 16.67° C | 45% | 0 hPa | 0 mm | 2.24 m/s, 248° | - | - |
| 1778043003 | 16.67° C | 45% | 0 hPa | 0 mm | 4.02 m/s, 226° | - | - |
| 1778042522 | 16.67° C | 45% | 0 hPa | 0 mm | 5.36 m/s, 181° | - | - |
| 1778042222 | 16.67° C | 45% | 0 hPa | 0 mm | 3.13 m/s, 324° | - | - |
* Rain latest hour (hover to see other rain measurements)
** Current wind speed in m/s (hover to see current wind gust speed)